Flag for Iran Weather past 2 weeks in Esfahãn, Iran

Now
93 °F

Passing clouds.


Feels Like: 89 °F
Forecast: 61 / 94 °F
Wind: 12 mph from Northeast

Location: Esfahan

Current Time: Jul 31, 2015 at 6:58:04 PM

Latest Report: Jul 31, 2015 at 6:30 PM


Visibility: N/A

Pressure: 29.95 "Hg (25.13 "Hg at 1576m altitude)

Humidity: 10%

Dew point: 28 °F

Location of EsfahãnLocation

Historic Weather in Esfahãn — Graph

°F

Esfahãn temperature yesterday

Maximum temperature yesterday: 97 °F (at 5:00 PM)
Minimum temperature yesterday: 63 °F (at 6:30 AM)
Average temperature yesterday: 83 °F

Past Weeks' High & Low Weather Summary

 TemperatureHumidityPressure
High100 °F (Jul 17, 3:30 PM)100% (Jul 21, 6:00 AM)30.09 "Hg (Jul 21, 6:00 AM)
Low57 °F (Jul 26, 6:30 AM)4% (Jul 16, 5:30 PM)29.59 "Hg (Jul 19, 6:30 PM)
Average81 °F24%29.93 "Hg
* Reported Jul 16 5:30 PM — Jul 31 6:00 PM, Esfahãn, Weather by CustomWeather, © 2015

Note: Actual official high and low records may vary slightly from our data, if they occured in-between our weather recording intervals... More about our weather records

Advertising

Esfahãn weather history for previous 24 hours

 ConditionsComfort  
Time TempWeatherWind HumidityBarometerVisibility
6:00 PM
Fri, Jul 31
93 °FPassing clouds.16 mph10%29.95 "HgN/A
5:30 PM93 °FPassing clouds.12 mph10%29.95 "HgN/A
5:00 PM93 °FPassing clouds.14 mph10%29.95 "HgN/A
4:30 PM93 °FPassing clouds.12 mph11%29.95 "HgN/A
4:00 PM95 °FPassing clouds.12 mph9%29.95 "HgN/A
3:30 PM93 °FPassing clouds.5 mph11%29.95 "HgN/A
3:00 PM93 °FPassing clouds.7 mph12%29.98 "HgN/A
2:30 PM91 °FPassing clouds.9 mph12%29.98 "HgN/A
2:00 PM93 °FPassing clouds.12 mph11%29.98 "HgN/A
1:30 PM91 °FPassing clouds.12 mph12%30.01 "HgN/A
1:00 PM90 °FPassing clouds.7 mph13%30.01 "HgN/A
12:30 PM90 °FPassing clouds.9 mph13%30.01 "HgN/A
12:00 PM90 °FPassing clouds.7 mph13%30.04 "HgN/A
11:30 AM88 °FPassing clouds.7 mph13%30.04 "HgN/A
11:00 AM88 °FClear.5 mph16%30.04 "Hg4 mi
10:30 AM86 °FClear.5 mph17%30.04 "Hg4 mi
10:00 AM82 °FHaze.5 mph19%30.04 "Hg3 mi
9:30 AM81 °FHaze.5 mph20%30.04 "Hg3 mi
9:00 AM77 °FHaze.5 mph22%30.04 "Hg3 mi
8:30 AM73 °FHaze.7 mph25%30.04 "Hg3 mi
8:00 AM72 °FHaze.7 mph13%30.04 "Hg1 mi
7:30 AM64 °FHaze.7 mph30%30.04 "Hg1 mi
7:00 AM63 °FHaze.7 mph34%30.04 "Hg1 mi
6:30 AM61 °FClear.5 mph29%30.04 "Hg10 mi
6:00 AM61 °FClear.2 mph31%30.01 "Hg10 mi
5:30 AM63 °FClear.5 mph32%30.01 "Hg10 mi
5:00 AM66 °FClear.7 mph30%30.01 "Hg10 mi
4:30 AM70 °FClear.5 mph25%30.01 "Hg10 mi
4:00 AM70 °FClear.5 mph27%30.01 "Hg10 mi
3:30 AM70 °FClear.5 mph27%30.01 "Hg10 mi
3:00 AM72 °FPassing clouds.5 mph22%30.01 "HgN/A
2:30 AM73 °FPassing clouds.7 mph20%30.01 "HgN/A
2:00 AM79 °FPassing clouds.7 mph16%30.04 "HgN/A
1:30 AM81 °FPassing clouds.7 mph15%30.04 "HgN/A
1:00 AM79 °FClear.7 mph17%30.07 "Hg10 mi
12:30 AM79 °FClear.5 mph17%30.07 "Hg10 mi
12:00 AM79 °FClear.7 mph16%30.04 "Hg10 mi
11:30 PM
Thu, Jul 30
81 °FClear.5 mph15%30.04 "Hg10 mi
11:00 PM82 °FClear.7 mph13%30.04 "Hg10 mi
10:30 PM82 °FClear.9 mph13%30.04 "Hg10 mi
10:00 PM84 °FPassing clouds.7 mph11%30.01 "HgN/A
9:30 PM86 °FScattered clouds.16 mph11%30.01 "HgN/A
9:00 PM86 °FPartly sunny.16 mph11%29.98 "HgN/A
8:30 PM88 °FScattered clouds.14 mph10%29.98 "HgN/A
8:00 PM90 °FPassing clouds.16 mph9%29.98 "HgN/A
7:30 PM91 °FPassing clouds.21 mph9%29.98 "HgN/A
7:00 PM91 °FScattered clouds.22 mph8%29.95 "HgN/A
6:30 PM93 °FScattered clouds.14 mph8%29.95 "HgN/A
6:00 PM93 °FScattered clouds.9 mph8%29.95 "HgN/A
Weather by CustomWeather, © 2015

See weather overviewHow to use our weather pages